Location: G�ritzhain
(50.9707°N, 12.7896°E)
Time: 22:14:26
(UTC+00:00)

Daily predictions for brighter satellites

Satellite Brightness Start Highest point End
(mag) Time Altitude Azimuth Time Altitude Azimuth Time Altitude Azimuth
MetOp-B 4.2 19:38:09 10° SSE 19:43:28 74° ENE 19:48:50 10° NNW
STARLINK-1108 4.0 19:39:39 10° WNW 19:43:48 66° N 19:47:56 10° E
Cosmos 1140 Rocket 3.6 19:39:30 10° NNW 19:44:43 71° ENE 19:49:55 10° SSE
STARLINK-1121 3.9 19:41:45 10° W 19:45:53 73° N 19:50:03 10° ENE
STARLINK-1093 3.6 19:42:27 10° WNW 19:46:36 78° SSW 19:50:45 10° ESE
Cosmos 614 Rocket 4.2 19:42:44 10° NNW 19:47:48 71° WSW 19:52:52 10° SSE
Okean 2 Rocket 4.0 19:44:12 10° N 19:48:19 35° ENE 19:52:23 10° SE
STARLINK-1071 4.0 19:44:39 10° WNW 19:48:47 67° N 19:52:56 10° E
Cosmos 1703 Rocket 3.5 19:45:06 10° S 19:49:24 74° E 19:53:46 10° NNE
STARLINK-1106 4.0 19:46:45 10° W 19:50:53 71° N 19:55:01 10° ENE
Cosmos 1371 Rocket 4.3 19:46:16 10° S 19:51:18 48° ESE 19:56:19 10° NNE
STARLINK-1074 3.7 19:47:25 10° WNW 19:51:35 74° SSW 19:55:42 10° ESE
Cosmos 1634 Rocket 4.2 19:45:57 10° N 19:52:15 66° ENE 19:58:32 10° SSE
Cosmos 1743 3.3 19:49:08 10° NNW 19:52:54 57° W 19:56:38 10° S
STARLINK-1110 4.0 19:48:51 10° WNW 19:53:00 68° N 19:57:08 10° E
STARLINK-1087 4.3 19:53:58 10° WSW 19:55:09 14° SW 19:56:19 10° S
Cosmos 1544 3.1 19:51:46 10° N 19:55:26 74° ENE 19:59:03 10° SSE
STARLINK-1112 4.0 19:51:45 10° W 19:55:53 70° N 20:00:02 10° ENE
Cosmos 2082 Rocket 3.1 19:51:07 10° NNW 19:56:32 40° NE 20:01:54 10° ESE
SAR-Lupe-2 4.1 19:54:10 10° NNE 19:57:36 40° E 20:01:00 10° S
Landsat 7 3.9 19:53:08 10° SSE 19:57:51 67° ENE 20:02:35 10° N
STARLINK-1124 3.9 19:54:37 10° WNW 19:58:47 69° N 20:02:55 10° E
Cosmos 1908 Rocket 4.5 19:54:41 10° NNW 19:58:59 50° W 20:03:16 10° SSW
Cosmos 1954 Rocket 4.2 19:54:26 10° NNW 19:59:40 64° ENE 20:04:54 10° SE
STARLINK-1128 4.0 19:56:44 10° W 20:00:53 68° N 20:05:01 10° ENE
STARLINK-1088 3.7 19:57:23 10° WNW 20:01:31 67° SSW 20:05:37 10° ESE
STARLINK-1122 3.9 19:59:37 10° WNW 20:03:46 71° N 20:07:55 10° E
Cosmos 1833 Rocket 2.9 20:00:01 10° NNW 20:05:38 64° ENE 20:11:09 10° SE
ERS-1 Rocket 3.4 20:00:46 10° SE 20:05:38 52° ENE 20:10:31 10° N
STARLINK-1238 4.4 20:02:03 10° SSW 20:05:38 29° SE 20:09:15 10° E
STARLINK-1113 4.0 20:01:44 10° W 20:05:51 67° N 20:10:00 10° ENE
SeaSat 1 4.3 20:04:45 10° E 20:06:25 12° E 20:08:06 10° ESE
STARLINK-1115 3.8 20:02:21 10° WNW 20:06:28 64° SSW 20:10:32 10° SE
Cosmos 1975 3.0 20:03:25 10° NNW 20:07:30 77° W 20:11:32 10° S
STARLINK-1126 3.9 20:04:33 10° WNW 20:08:42 72° N 20:12:51 10° E
STARLINK-1201 4.3 20:06:57 10° SSW 20:10:36 31° SE 20:14:18 10° E
STARLINK-1119 4.0 20:06:43 10° W 20:10:52 66° N 20:14:59 10° ENE
Spot 2 Rocket 3.6 20:05:59 10° SSE 20:11:02 82° WSW 20:16:07 10° NNW
Tsikada Rocket 4.1 20:04:53 10° S 20:11:07 83° W 20:17:19 10° N
STARLINK-1076 3.8 20:07:20 10° WNW 20:11:26 60° SSW 20:15:20 11° SE
CZ-2C R/B 3.6 20:06:04 10° N 20:11:29 54° WNW 20:16:56 10° SW
Meteor 2-9 Rocket 4.2 20:06:21 10° NNW 20:11:49 80° W 20:17:09 10° S
Cosmos 676 Rocket 4.0 20:07:08 10° NNW 20:12:24 80° ENE 20:17:33 11° SSE
STARLINK-1082 3.8 20:09:35 10° WNW 20:13:45 74° NNE 20:17:54 10° E
STARLINK-1206 4.3 20:11:49 10° SSW 20:15:34 33° SE 20:19:18 10° E
STARLINK-1114 4.1 20:11:44 10° W 20:15:51 66° N 20:20:00 10° ENE
GENESIS II 4.3 20:11:57 10° NW 20:16:01 86° NE 20:19:36 13° SE
STARLINK-1092 3.9 20:12:19 10° WNW 20:16:23 57° SSW 20:20:06 12° SE
Cosmos 389 Rocket 3.7 20:15:04 10° SSW 20:18:23 44° WNW 20:21:46 10° N
STARLINK-1100 3.8 20:14:34 10° WNW 20:18:43 76° NNE 20:22:53 10° E
SL-4 R/B 2.4 20:15:57 10° NNW 20:19:02 37° NE 20:21:42 12° ESE
Cosmos 2056 Rocket 3.4 20:14:50 10° SSW 20:19:54 70° ESE 20:25:01 10° NNE
STARLINK-1205 4.2 20:16:42 10° SSW 20:20:30 35° SE 20:24:18 10° ENE
Okean 1 4.2 20:16:46 10° SSW 20:20:42 51° WNW 20:24:42 10° N
STARLINK-1130 (DARKSAT) 4.1 20:16:42 10° W 20:20:50 65° N 20:24:58 10° E
STARLINK-1080 3.9 20:17:20 10° WNW 20:21:23 53° SSW 20:24:54 13° SE
STARLINK-1083 3.7 20:19:32 10° WNW 20:23:42 78° NNE 20:27:52 10° E
ISS -3.8 20:21:26 10° W 20:24:49 90° WNW 20:28:13 10° ESE
STARLINK-1218 4.1 20:21:36 10° SSW 20:25:27 38° SE 20:29:18 10° ENE
STARLINK-1084 4.1 20:21:42 10° W 20:25:49 65° N 20:29:57 10° E
STARLINK-1090 4.0 20:22:19 10° WNW 20:26:21 50° SSW 20:29:41 14° SE
Meteor 1-19 Rocket 4.4 20:22:49 10° SSW 20:28:25 79° WNW 20:34:14 10° N
STARLINK-1125 3.7 20:24:32 10° WNW 20:28:42 80° NNE 20:32:51 10° ESE
STARLINK-1254 4.0 20:26:31 10° SW 20:30:24 40° SSE 20:34:19 10° ENE
STARLINK-1098 4.1 20:26:42 10° W 20:30:50 65° N 20:34:58 10° E
STARLINK-67 2.9 20:29:17 10° W 20:31:11 44° N 20:33:06 10° ENE
STARLINK-1089 4.1 20:27:19 10° WNW 20:31:19 47° SSW 20:34:28 15° SE
SL-8 R/B 3.7 20:26:50 10° WSW 20:31:35 60° S 20:36:20 10° E
CARTOSAT-1 3.6 20:28:14 13° SSE 20:32:08 78° ENE 20:36:29 10° NNW
Cosmos 2278 Rocket 2.4 20:27:26 10° S 20:32:55 54° ESE 20:38:27 10° NE
STARLINK-1109 3.7 20:29:30 10° WNW 20:33:40 83° NNE 20:37:49 10° ESE
STARLINK-1231 3.9 20:31:27 10° SW 20:35:23 43° SSE 20:39:20 10° ENE
STARLINK-1123 4.1 20:31:41 10° W 20:35:49 64° N 20:39:57 10° E
STARLINK-1107 4.2 20:32:18 10° WNW 20:36:16 44° SSW 20:39:14 16° SE
Meteor 1-12 Rocket 4.3 20:32:16 10° NNW 20:37:57 88° W 20:43:14 12° S
STARLINK-1091 3.6 20:34:29 10° WNW 20:38:39 85° NNE 20:42:48 10° ESE
Cosmos 1437 Rocket 3.5 20:36:59 16° SSE 20:39:28 33° E 20:42:54 10° NNE
Lacrosse 5 1.9 20:35:13 10° WNW 20:40:19 88° NE 20:44:51 13° ESE
STARLINK-1232 3.8 20:36:22 10° SW 20:40:20 46° SSE 20:44:19 10° ENE
STARLINK-1097 4.1 20:36:41 10° W 20:40:48 64° N 20:44:56 10° E
STARLINK-1066 4.2 20:37:19 10° WNW 20:41:14 42° SSW 20:44:02 17° SSE
NOSS 2-3 (E) 3.7 20:37:06 10° SW 20:41:28 83° SE 20:46:47 10° NE
Terra 1.9 20:38:31 15° SSE 20:42:26 67° ENE 20:47:11 10° N
STARLINK-1072 3.6 20:39:29 10° WNW 20:43:38 88° NNE 20:47:38 11° ESE
Cosmos 1844 Rocket 4.2 20:38:27 10° WSW 20:43:46 40° NW 20:49:05 10° NNE
STARLINK-1208 3.8 20:41:17 10° SW 20:45:17 49° SSE 20:49:18 10° ENE
STARLINK-1099 4.0 20:41:39 10° W 20:45:47 65° N 20:49:54 10° E
STARLINK-1228 3.0 20:42:36 10° WSW 20:45:56 90° SSE 20:49:16 10° ENE
STARLINK-1081 4.3 20:42:19 10° WNW 20:46:11 39° SW 20:48:49 18° SSE
STARLINK-1096 3.6 20:44:29 10° WNW 20:48:39 89° SSW 20:52:25 12° ESE
STARLINK-1234 2.8 20:46:25 10° WSW 20:49:32 90° WNW 20:52:40 10° ENE
STARLINK-1271 3.7 20:46:14 10° SW 20:50:15 52° SSE 20:54:18 10° ENE
Cosmos 1300 Rocket 3.8 20:46:09 10° NNW 20:50:36 71° W 20:54:26 14° S
STARLINK-1104 4.0 20:46:39 10° W 20:50:47 65° N 20:54:54 10° E
STARLINK-1212 2.7 20:47:47 10° WSW 20:50:53 78° SSE 20:54:01 10° ENE
Cosmos 1452 Rocket 3.8 20:45:55 10° S 20:50:55 49° ESE 20:56:01 10° NNE
STARLINK-1070 4.4 20:47:18 10° WNW 20:51:07 37° SW 20:53:36 19° SSE
STARLINK-1209 2.9 20:48:10 10° WSW 20:51:19 86° N 20:54:28 10° ENE
STARLINK-1105 2.7 20:48:16 10° WSW 20:51:22 79° SSE 20:54:28 10° ENE
STARLINK-1247 2.7 20:49:10 10° WSW 20:52:17 79° SSE 20:55:25 10° ENE
STARLINK-1227 2.7 20:49:38 10° WSW 20:52:44 80° SSE 20:55:50 10° ENE
Okean 3 3.7 20:48:40 10° SSW 20:52:57 73° WNW 20:57:17 10° N
Crew Dragon -0.2 20:51:12 10° W 20:53:21 69° SSW 20:54:14 30° ESE
STARLINK-1226 2.7 20:50:29 10° WSW 20:53:35 81° SSE 20:56:43 10° ENE
STARLINK-1079 3.6 20:49:25 10° WNW 20:53:35 86° SSW 20:57:10 14° ESE
STARLINK-1215 2.7 20:51:25 10° WSW 20:54:32 81° SSE 20:57:40 10° ENE
STARLINK-1154 3.7 20:51:10 10° SW 20:55:14 55° SSE 20:59:17 10° ENE
STARLINK-1144 4.0 20:51:39 10° W 20:55:47 65° N 20:59:55 10° E
STARLINK-1217 2.7 20:53:12 10° WSW 20:56:18 83° SSE 20:59:26 10° ENE
STARLINK-1229 2.7 20:54:06 10° WSW 20:57:13 84° SSE 21:00:21 10° ENE
Cosmos 1420 Rocket 3.9 20:52:25 10° SSW 20:57:38 76° ESE 21:02:50 10° NNE
STARLINK-1270 2.7 20:54:58 10° WSW 20:58:05 85° SSE 21:01:13 10° ENE
STARLINK-1116 3.5 20:54:25 10° WNW 20:58:35 82° SSW 21:01:58 15° ESE
Cosmos 2221 Rocket 3.9 20:55:23 10° SSW 20:59:51 68° WNW 21:04:24 10° N
STARLINK-1189 2.7 20:56:48 10° WSW 20:59:55 86° SSE 21:03:04 10° ENE
STARLINK-1197 3.6 20:56:07 10° SW 21:00:11 58° SSE 21:04:16 10° ENE
STARLINK-1103 4.0 20:56:38 10° WNW 21:00:46 66° N 21:04:54 10° E
STARLINK-1188 2.8 20:57:41 10° WSW 21:00:48 87° SSE 21:03:57 10° ENE
Cosmos 1766 4.5 20:57:14 10° N 21:00:49 31° ENE 21:03:05 18° ESE
MTI 4.1 20:57:57 10° NNE 21:01:01 46° E 21:02:33 24° SSE
COSMOS 2406 4.3 20:55:45 10° NW 21:01:03 38° WSW 21:05:59 11° S
NOSS 2-3 (D) 3.9 20:57:03 10° SW 21:01:25 79° NW 21:06:48 10° NE
STARLINK-1235 2.9 20:58:23 10° WSW 21:01:29 83° NNW 21:04:36 10° ENE
STARLINK-1187 2.8 20:58:48 10° WSW 21:01:54 87° NNW 21:05:01 10° ENE
Meteor 1-13 Rocket 4.2 20:57:09 10° S 21:02:44 87° ESE 21:08:29 10° NNE
STARLINK-1191 2.8 21:00:10 10° WSW 21:03:16 89° SSE 21:06:23 10° ENE
STARLINK-1221 2.8 21:01:02 10° WSW 21:04:09 90° E 21:07:16 10° ENE
Cosmos 371 Rocket 3.3 21:00:02 11° S 21:04:32 62° ESE 21:09:22 10° NNE
STARLINK-1222 2.8 21:01:55 10° WSW 21:05:02 89° NNE 21:08:09 10° ENE
STARLINK-1198 3.6 21:01:03 10° SW 21:05:08 62° SSE 21:09:14 10° ENE
USA 215 3.3 20:58:34 10° ESE 21:05:08 87° NNE 21:11:43 10° WNW
Meteor 1-23 Rocket 4.5 21:01:01 16° SSE 21:05:27 55° E 21:10:58 10° NNE
STARLINK-1101 4.0 21:01:37 10° WNW 21:05:45 67° N 21:09:53 10° E
Resurs 01 Rocket 4.2 21:03:30 10° WSW 21:05:47 14° W 21:08:06 10° NW
STARLINK-1214 2.8 21:02:51 10° WSW 21:05:57 89° NNW 21:09:03 10° ENE
Meteor 2-4 Rocket 4.1 21:00:57 10° SSW 21:06:16 61° WNW 21:11:36 10° N
Cosmos 1461 4.4 21:06:45 18° SE 21:07:21 19° ESE 21:10:23 10° ENE
Cosmos 1674 Rocket 3.5 21:04:49 17° S 21:08:05 70° E 21:12:29 10° NNE
Abrixas rocket 2.0 21:05:14 10° WSW 21:08:06 50° S 21:09:45 22° ESE
STARLINK-1094 3.5 21:04:24 10° WNW 21:08:33 75° SSW 21:11:32 18° ESE
STARLINK-1199 3.5 21:06:02 10° SW 21:10:08 65° SSE 21:14:15 10° ENE
STARLINK-1102 3.9 21:06:37 10° WNW 21:10:46 68° N 21:14:54 10° E
USA 229 DEB 4.5 21:06:09 10° WSW 21:12:39 56° NW 21:19:34 10° NE
USA 229 4.4 21:06:17 10° WSW 21:12:46 56° NW 21:19:41 10° NE
STARLINK-1117 3.6 21:09:22 10° WNW 21:13:31 72° SSW 21:16:19 20° ESE
STARLINK-1210 3.5 21:10:58 10° WSW 21:15:05 69° SSE 21:19:13 10° ENE
Cosmos 1378 Rocket 3.6 21:12:35 20° S 21:15:33 65° E 21:19:56 10° NNE
STARLINK-1111 3.9 21:11:36 10° WNW 21:15:45 69° N 21:19:53 10° E
NOSS 3 (A) 4.3 21:13:55 10° SW 21:16:37 85° SE 21:19:45 10° NE
SPOT 5 3.7 21:12:28 14° S 21:16:43 50° W 21:21:54 10° NNW
STARLINK-1078 3.6 21:14:21 10° WNW 21:18:29 68° SSW 21:21:05 21° SE
Nadezhda 4 Rocket 4.0 21:13:37 17° S 21:18:31 70° E 21:24:37 10° NNE
STARLINK-1219 3.5 21:15:56 10° WSW 21:20:03 72° SSE 21:24:12 10° ENE
Cosmos 1733 4.1 21:17:00 10° N 21:20:37 37° ENE 21:22:28 23° SE
STARLINK-1073 3.9 21:16:36 10° WNW 21:20:45 70° N 21:24:53 10° E
Cosmos 1741 Rocket 4.1 21:15:51 10° NNW 21:21:05 74° WSW 21:24:31 22° SSE
NOSS 3-1 (A) 4.0 21:15:53 10° WSW 21:21:33 61° NW 21:28:16 10° NE
ATLAS CENTAUR R/B 3.5 21:20:55 10° NW 21:22:15 16° N 21:23:35 10° NE
STARLINK-1192 4.4 21:21:25 24° S 21:22:39 28° SE 21:26:15 10° E
STARLINK-1108 3.6 21:19:20 10° WNW 21:23:27 65° SSW 21:25:52 23° SE
ATLAS 3B R/B 4.3 21:18:59 10° NW 21:24:54 32° NNE 21:30:58 10° E
STARLINK-1211 3.5 21:20:53 10° WSW 21:25:01 76° SSE 21:29:10 10° ENE
STARLINK-1121 3.8 21:21:34 10° WNW 21:25:43 72° N 21:29:51 10° E
Cosmos 1975 Rocket 4.1 21:23:46 22° SE 21:25:46 31° E 21:29:41 10° NNE
STARLINK-1244 4.4 21:26:11 24° S 21:27:36 30° SE 21:31:15 10° E
STARLINK-1071 3.7 21:24:19 10° WNW 21:28:25 61° SSW 21:30:39 25° SE
Cosmos 2297 4.1 21:25:26 20° S 21:28:59 45° ESE 21:34:25 10° NE
CENTAUR R/B 3.9 21:21:55 10° NW 21:29:16 49° NNE 21:37:31 10° ESE
STARLINK-1245 3.5 21:25:52 10° WSW 21:30:00 79° SSE 21:34:10 10° ENE
STARLINK-1106 3.8 21:26:33 10° WNW 21:30:42 73° NNE 21:34:51 10° E
BREEZE-M DEB (TANK) 4.2 21:18:58 10° WNW 21:32:29 55° SW 21:35:38 22° SSE
STARLINK-1138 4.3 21:30:58 24° S 21:32:33 32° SE 21:36:16 10° E
STARLINK-1110 3.7 21:28:31 10° WNW 21:32:36 58° SSW 21:34:41 27° SE
STARLINK-1203 4.2 21:32:36 21° SSW 21:34:43 34° SE 21:38:33 10° ENE
STARLINK-1233 3.5 21:30:49 10° WSW 21:34:58 83° SSE 21:39:08 10° ENE
Cosmos 1850 Rocket 4.4 21:29:54 10° NNW 21:35:08 56° WSW 21:38:31 22° S
STARLINK-1112 3.8 21:31:33 10° WNW 21:35:42 75° NNE 21:39:51 10° E
ERBS 2.2 21:32:51 10° SW 21:36:06 60° SE 21:39:23 10° ENE
STARLINK-1143 4.2 21:35:45 24° S 21:37:30 34° SE 21:41:16 10° ENE
STARLINK-1124 3.8 21:34:18 10° WNW 21:38:22 55° SSW 21:40:13 29° SE
Cosmos 1242 Rocket 4.4 21:37:35 16° ESE 21:38:22 17° E 21:40:50 10° NE
STARLINK-1204 3.5 21:35:49 10° WSW 21:39:58 86° SSE 21:44:08 10° ENE
STARLINK-1128 3.7 21:36:32 10° WNW 21:40:42 77° NNE 21:44:50 10° E
Cosmos 2082 Rocket 2.9 21:35:18 10° NW 21:40:44 45° WSW 21:44:18 20° S
NOSS 8 (E) 4.4 21:40:14 39° SSE 21:40:49 46° SE 21:43:46 10° NE
STARLINK-1241 4.1 21:40:29 23° SSW 21:42:26 37° SE 21:46:16 10° ENE
Aureole 2 4.3 21:39:19 10° NNW 21:42:48 72° WSW 21:43:49 39° S
STARLINK-1122 3.8 21:39:17 10° WNW 21:43:19 51° SSW 21:45:00 30° SSE
Cosmos 1470 4.1 21:40:06 10° N 21:43:31 29° ENE 21:45:16 20° ESE
Okean 1 Rocket 3.6 21:39:47 10° NNW 21:44:11 54° W 21:46:51 22° SSW
SeaSat 1 2.4 21:39:51 10° NE 21:44:47 67° ESE 21:48:18 19° SSW
STARLINK-1238 3.5 21:40:45 10° WSW 21:44:55 89° SSE 21:49:05 10° ENE
STARLINK-1113 3.7 21:41:31 10° WNW 21:45:41 79° NNE 21:49:37 11° ESE
Cosmos 1110 Rocket 4.1 21:43:28 24° S 21:46:32 58° ESE 21:51:37 10° NNE
STARLINK-1239 4.0 21:45:15 22° SSW 21:47:22 39° SSE 21:51:16 10° ENE
STARLINK-1126 3.9 21:44:14 10° WNW 21:48:14 48° SSW 21:49:45 32° SSE
Cosmos 1833 Rocket 4.2 21:44:36 10° NW 21:49:07 25° WSW 21:52:51 13° SSW
STARLINK-1201 3.6 21:45:46 10° WSW 21:49:55 88° NNW 21:54:05 10° ENE
NOSS 2-2 (C) 4.2 21:50:29 26° ESE 21:50:33 26° ESE 21:53:53 10° ENE
STARLINK-1119 3.6 21:46:29 10° WNW 21:50:39 82° NNE 21:54:23 13° ESE
ATLAS 2AS CENTAUR R/B 4.5 21:48:30 15° SE 21:51:14 18° ESE 21:56:06 10° ENE
Cosmos 1805 3.4 21:47:44 10° NNW 21:51:39 69° W 21:53:26 30° S
SL-4 R/B 3.1 21:49:33 10° WNW 21:51:57 20° WSW 21:52:33 19° SW
Aureole 2 Rocket 2.1 21:51:13 44° S 21:52:02 65° ESE 21:55:06 10° NNE
EO 1 Del DPAF 3.2 21:48:22 10° NNE 21:52:09 63° ESE 21:53:37 34° S
STARLINK-1240 3.9 21:50:02 21° SSW 21:52:21 42° SSE 21:56:17 10° ENE
BREEZE-M DEB (TANK) 4.3 21:37:51 10° W 21:53:04 70° SSW 21:56:23 18° ESE
STARLINK-1082 4.0 21:49:16 10° WNW 21:53:15 45° SSW 21:54:34 33° SSE
Cosmos 304 Rocket 3.7 21:50:10 21° SSW 21:53:21 81° ESE 21:58:11 10° NNE
STARLINK-1206 3.6 21:50:44 10° WSW 21:54:54 85° NNW 21:59:04 10° ENE
NOSS 3-2 (A) 4.1 21:48:18 10° NW 21:55:36 77° NE 22:02:51 14° SE
Okean 2 3.4 21:53:51 32° SSE 21:55:38 65° E 21:59:44 10° NNE
STARLINK-1114 3.6 21:51:29 10° WNW 21:55:39 84° NNE 21:59:11 14° ESE
Cosmos 1092 Rocket 3.9 21:52:19 22° S 21:56:29 83° E 22:02:39 10° N
Cosmos 1455 Rocket 3.1 21:52:47 10° N 21:57:09 66° ENE 21:59:07 31° SSE
STARLINK-1216 3.9 21:54:48 20° SSW 21:57:18 45° SSE 22:01:16 10° ENE
Cosmos 332 Rocket 4.1 21:52:44 12° SW 21:57:19 66° WNW 22:02:13 10° NNE
STARLINK-1100 4.1 21:54:15 10° WNW 21:58:12 43° SSW 21:59:21 34° S
Cosmos 2369 Rocket 3.3 21:57:14 22° SE 21:59:13 28° ESE 22:03:56 10° NE
Helios 1A 4.4 21:57:21 18° ESE 21:59:40 30° ENE 22:03:19 10° N
STARLINK-1205 3.6 21:55:43 10° WSW 21:59:53 82° NNW 22:04:03 10° ENE
STARLINK-1130 (DARKSAT) 3.6 21:56:27 10° WNW 22:00:37 87° NNE 22:03:56 16° ESE
ISS -2.9 21:58:21 10° W 22:01:21 32° SSW 22:01:21 32° SSW
STARLINK-1237 3.8 21:59:34 19° SW 22:02:16 48° SSE 22:06:16 10° ENE
USA 238 DEB 3.9 21:55:46 10° NW 22:02:56 81° NE 22:08:58 17° SE
USA 238 3.9 21:55:51 10° NW 22:03:02 80° NE 22:09:06 17° SE
STARLINK-1083 4.1 21:59:15 10° WNW 22:03:09 40° SSW 22:04:08 34° S
STARLINK-67 3.7 22:01:24 10° WNW 22:02:31 27° WNW 22:02:31 27° WNW
Cosmos 1378 3.4 22:02:30 28° SSW 22:04:18 65° WNW 22:08:02 10° N
STARLINK-1218 3.7 22:00:42 10° WSW 22:04:51 80° NNW 22:09:01 10° ENE
STARLINK-1084 3.5 22:01:26 10° WNW 22:05:36 90° ESE 22:08:43 17° ESE
Cosmos 1842 3.3 22:05:25 36° SSE 22:06:49 64° E 22:10:42 10° NNE
STARLINK-1202 3.7 22:04:21 18° SW 22:07:14 51° SSE 22:11:16 10° ENE
STARLINK-1125 4.2 22:04:15 10° WNW 22:08:06 38° SW 22:08:54 34° S
OPS 6432 4.3 22:06:39 10° NW 22:09:44 82° NE 22:11:02 36° SE
STARLINK-1254 3.7 22:05:42 10° W 22:09:50 78° NNW 22:14:01 10° ENE
Cosmos 1943 Rocket 2.6 22:07:35 28° SSE 22:10:00 43° ESE 22:15:15 10° NE
Cosmos 1025 Rocket 4.1 22:08:42 24° SE 22:10:07 30° E 22:13:53 10° NNE
Cosmos 1331 Rocket 3.9 22:07:06 24° SSW 22:10:16 80° ESE 22:15:29 10° NNE
STARLINK-1098 3.5 22:06:26 10° WNW 22:10:35 87° SSW 22:13:31 19° ESE
STARLINK-1109 4.3 22:09:15 10° WNW 22:13:02 35° SW 22:13:40 33° SSW
SL-8 R/B 3.7 22:09:09 10° W 22:13:55 60° S 22:17:56 14° ESE
Cosmos 1302 Rocket 4.3 22:12:14 29° SSE 22:14:36 50° ESE 22:19:43 10° NNE
STARLINK-1231 3.8 22:10:42 10° W 22:14:51 76° NNW 22:19:01 10° ENE
STARLINK-1123 3.5 22:11:24 10° WNW 22:15:34 84° SSW 22:18:17 21° ESE
Meteor 2-13 Rocket 4.5 22:12:50 26° S 22:16:29 76° E 22:22:40 10° NNE
STARLINK-1246 3.6 22:13:53 15° SW 22:17:09 57° SSE 22:21:14 10° ENE
Cosmos 2278 Rocket 3.8 22:12:05 10° WSW 22:17:16 35° NW 22:22:29 10° NNE
STARLINK-1091 4.4 22:14:15 10° W 22:17:59 33° SW 22:18:27 32° SSW
STARLINK-1232 3.8 22:15:41 10° W 22:19:50 74° NNW 22:24:00 10° ENE
STARLINK-1097 3.5 22:16:23 10° WNW 22:20:32 80° SSW 22:23:04 23° ESE
Terra 3.9 22:17:24 10° SW 22:20:40 19° W 22:23:59 10° NW
ALOS 2 2.6 22:19:22 33° SSE 22:21:19 77° ENE 22:25:43 10° NNW
ATLAS 5 CENTAUR R/B 3.3 22:23:07 15° E 22:23:07 15° E 22:23:43 10° E
STARLINK-1224 3.6 22:18:40 14° SW 22:22:07 60° SSE 22:26:13 10° ENE
STARLINK-1228 3.6 22:19:24 10° W 22:22:42 58° N 22:26:00 10° E
Lacrosse 5 3.0 22:18:41 10° WNW 22:22:49 26° SW 22:24:01 23° SSW
STARLINK-1072 4.5 22:19:16 10° W 22:22:57 31° SW 22:23:15 31° SSW
S3M 4.2 22:18:11 10° N 22:24:17 63° ENE 22:27:54 25° SSE
Thor Agena Rocket 3.8 22:19:13 10° NNE 22:24:30 69° WNW 22:28:06 21° SSW
STARLINK-1208 3.8 22:20:40 10° W 22:24:48 72° N 22:28:58 10° ENE
Cosmos 1536 Rocket 4.4 22:23:49 29° SE 22:25:17 38° E 22:29:19 10° NNE
STARLINK-1099 3.5 22:21:21 10° WNW 22:25:30 77° SSW 22:27:49 25° ESE
STARLINK-1234 3.5 22:22:25 10° WNW 22:25:31 56° N 22:28:36 10° E
Spot 4 4.3 22:23:24 28° SSW 22:25:45 54° W 22:30:33 10° NNW
Cosmos 1655 Rocket 4.4 22:22:34 25° SSE 22:25:54 49° E 22:31:53 10° NNE
Cosmos 546 4.5 22:22:37 10° W 22:26:30 77° S 22:29:20 18° ESE
STARLINK-1212 3.5 22:23:45 10° W 22:26:49 56° N 22:29:54 10° E
STARLINK-1225 3.5 22:23:26 13° SW 22:27:06 64° SSE 22:31:13 10° ENE
STARLINK-1105 3.5 22:24:14 10° W 22:27:18 56° N 22:30:21 10° E
STARLINK-1209 3.5 22:24:20 10° WNW 22:27:27 57° N 22:30:34 10° E
STARLINK-1247 3.5 22:25:08 10° W 22:28:13 56° N 22:31:19 10° E
STARLINK-1227 3.5 22:25:36 10° W 22:28:40 56° N 22:31:44 10° E
STARLINK-1226 3.5 22:26:27 10° W 22:29:32 56° N 22:32:37 10° E
STARLINK-1271 3.9 22:25:40 10° W 22:29:49 71° N 22:33:58 10° ENE
STARLINK-1104 3.5 22:26:20 10° WNW 22:30:29 73° SSW 22:32:37 27° SE
STARLINK-1215 3.5 22:27:24 10° W 22:30:29 56° N 22:33:35 10° E
SL-4 R/B 1.8 22:31:54 37° WNW 22:31:54 37° WNW 22:33:35 10° NNW
STARLINK-1230 3.5 22:28:12 12° WSW 22:32:03 67° SSE 22:36:11 10° ENE
STARLINK-1217 3.5 22:29:10 10° W 22:32:15 56° N 22:35:20 10° E
BREEZE-M DEB (TANK) 3.0 22:21:57 10° WSW 22:32:26 65° S 22:35:39 10° E
Cosmos 1544 Rocket 3.5 22:28:34 10° NNW 22:32:55 76° W 22:34:36 36° S
STARLINK-1229 3.5 22:30:05 10° W 22:33:11 56° N 22:36:16 10° E
STARLINK-1270 3.5 22:30:57 10° W 22:34:02 56° N 22:37:07 10° E
STARLINK-1154 3.9 22:30:40 10° W 22:34:48 69° N 22:38:57 10° ENE
Cosmos 1726 3.0 22:31:37 10° N 22:35:07 39° ENE 22:36:25 28° ESE
EXPRESS MD2 4.4 22:30:48 10° WSW 22:35:20 65° SSE 22:45:04 10° ENE
STARLINK-1144 3.5 22:31:19 10° WNW 22:35:28 70° SSW 22:37:24 30° SE
STARLINK-1189 3.5 22:32:48 10° W 22:35:53 56° N 22:38:58 10° E
STARLINK-1188 3.5 22:33:40 10° W 22:36:46 56° N 22:39:51 10° E
STARLINK-1243 3.5 22:32:58 10° WSW 22:37:02 71° SSE 22:41:10 10° ENE
STARLINK-1235 3.5 22:34:25 10° WNW 22:37:28 57° N 22:40:33 10° E
STARLINK-1187 3.5 22:34:49 10° WNW 22:37:53 56° N 22:40:56 10° E
SL-27 R/B 2.4 22:35:07 10° NNW 22:38:45 79° WSW 22:39:37 49° S
STARLINK-1191 3.5 22:36:10 10° WNW 22:39:14 56° N 22:42:18 10° E
STARLINK-1197 3.9 22:35:39 10° W 22:39:47 68° N 22:43:56 10° ENE
STARLINK-1221 3.5 22:37:02 10° WNW 22:40:07 56° N 22:43:11 10° E
STARLINK-1103 3.5 22:36:18 10° WNW 22:40:26 66° SSW 22:42:11 32° SE
STARLINK-1222 3.5 22:37:56 10° WNW 22:41:00 56° N 22:44:04 10° E
STARLINK-1214 3.5 22:38:51 10° WNW 22:41:55 56° N 22:44:59 10° E
STARLINK-1236 3.5 22:37:52 10° WSW 22:42:00 74° SSE 22:46:09 10° ENE
Cosmos 1553 Rocket 4.0 22:35:40 10° NNW 22:42:02 78° W 22:45:31 28° S
Cosmos 1953 2.7 22:38:20 10° N 22:42:18 55° ENE 22:43:45 34° SE
Abrixas rocket 4.3 22:40:38 10° W 22:41:15 15° W 22:41:15 15° W
Cosmos 1340 Rocket 3.6 22:39:58 10° N 22:43:52 45° ENE 22:45:32 28° SE
Cosmos 1833 4.4 22:38:23 10° NNW 22:44:01 66° ENE 22:47:49 21° SE
STARLINK-1198 3.9 22:40:37 10° W 22:44:45 67° N 22:48:54 10° ENE
STARLINK-1101 3.6 22:41:17 10° WNW 22:45:23 63° SSW 22:46:57 35° SE
Cosmos 1461 3.2 22:43:04 20° SW 22:45:57 70° NW 22:50:22 10° NE
Cosmos 1271 Rocket 2.7 22:46:32 44° S 22:47:38 71° E 22:51:31 10° NNE
USA 215 3.8 22:45:48 27° S 22:48:36 39° SW 22:54:40 10° WNW
STARLINK-1199 4.0 22:45:39 10° W 22:49:47 66° N 22:53:55 10° ENE
Cosmos 2026 Rocket 4.4 22:45:53 21° SSW 22:50:09 58° WNW 22:56:25 10° N
Aureole 3 Rocket 4.1 22:45:18 10° NNW 22:50:18 62° W 22:54:05 26° SSW
STARLINK-1102 3.6 22:46:17 10° WNW 22:50:23 59° SSW 22:51:45 37° SE
Cosmos 1758 3.4 22:46:45 10° NNW 22:50:45 65° W 22:52:04 39° SSW
STARLINK-1269 3.5 22:47:47 10° WSW 22:51:57 81° SSE 22:56:06 10° ENE
COSMOS 2487 4.0 22:48:57 10° N 22:52:04 30° ENE 22:53:49 19° ESE
Cosmos 1656 Rocket 4.5 22:52:30 27° SSE 22:54:40 37° ESE 22:59:46 10° NE
STARLINK-1210 4.0 22:50:37 10° W 22:54:45 66° N 22:58:54 10° E
Cosmos 1707 2.7 22:53:56 44° S 22:55:06 79° E 22:59:02 10° NNE
STARLINK-1111 3.6 22:51:15 10° WNW 22:55:20 56° SSW 22:56:31 39° SSE
STARLINK-1200 3.5 22:52:47 10° WSW 22:56:56 85° SSE 23:01:06 10° ENE
NOSS 2-2 (D) 3.2 22:57:13 30° SW 22:58:57 80° NW 23:03:10 10° NE
STARLINK-1219 4.0 22:55:37 10° W 22:59:45 65° N 23:03:53 10° E
STARLINK-1073 3.7 22:56:15 10° WNW 23:00:18 53° SSW 23:01:19 41° SSE
Meteor 1-16 Rocket 4.3 22:54:45 10° N 23:00:25 73° ENE 23:03:23 28° SSE
NOSS 3-2 (C) 4.0 22:53:08 10° NW 23:00:32 79° SW 23:07:07 18° SE
YAOGAN 11 4.0 22:58:51 36° SSE 23:00:39 87° ENE 23:05:01 10° NNW
STARLINK-1192 3.5 22:57:45 10° WSW 23:01:55 88° SSE 23:06:05 10° ENE
Cosmos 1975 Rocket 4.4 23:00:54 18° SW 23:03:35 32° WNW 23:07:37 10° N
Cosmos 2292 Rocket 3.7 23:02:09 35° SSE 23:03:40 56° E 23:07:16 10° NNE
STARLINK-1211 4.0 23:00:36 10° W 23:04:44 65° N 23:08:51 10° E
STARLINK-1121 3.8 23:01:13 10° WNW 23:05:15 49° SSW 23:06:03 42° S
STARLINK-1244 3.5 23:02:43 10° WSW 23:06:53 89° N 23:11:03 10° ENE
STARLINK-1245 4.0 23:05:36 10° W 23:09:44 65° N 23:13:52 10° E
STARLINK-1106 3.8 23:06:14 10° WNW 23:10:13 46° SSW 23:10:51 42° S
Meteor 2-10 4.0 23:06:34 10° NNW 23:11:40 71° W 23:13:53 33° S
STARLINK-1138 3.6 23:07:42 10° WSW 23:11:52 86° NNW 23:16:02 10° ENE
NOSS 3-4 (A) 4.1 23:10:06 28° SSE 23:12:25 38° ESE 23:18:10 10° NE
NOSS 3-4 (C) 4.1 23:10:13 27° SSE 23:12:32 37° ESE 23:18:17 10° NE
ERBS 3.8 23:09:27 10° W 23:12:33 36° NNW 23:15:41 10° NE
Cosmos 1242 Rocket 3.4 23:11:36 29° WSW 23:12:55 42° WNW 23:16:27 10° N
Aureole 3 3.0 23:09:12 10° N 23:13:06 76° ENE 23:13:55 49° SSE
SL-4 R/B 4.0 23:13:39 19° SE 23:13:39 19° SE 23:16:33 10° E
STARLINK-1203 3.6 23:10:04 10° WSW 23:14:17 84° NNW 23:18:31 10° ENE
PSLV R/B 4.5 23:09:58 10° NNE 23:14:21 41° E 23:16:05 29° SE
STARLINK-1233 4.0 23:10:35 10° W 23:14:43 64° N 23:18:51 10° E
STARLINK-1112 3.9 23:11:14 10° WNW 23:15:11 44° SSW 23:15:39 42° SSW
ATLAS 3B R/B 3.0 23:09:57 10° NW 23:16:43 70° NE 23:23:41 10° SE
STARLINK-1143 3.6 23:12:41 10° WSW 23:16:51 84° NNW 23:21:01 10° ENE
NOSS 2-2 (E) 4.1 23:15:11 16° WSW 23:18:01 49° NW 23:22:21 10° NE
SL-16 R/B 4.2 23:13:06 10° ESE 23:18:14 29° NE 23:23:24 10° N
Cosmos 2266 Rocket 3.9 23:16:09 29° S 23:19:29 85° E 23:25:36 10° N
Cosmos 1470 4.1 23:16:12 10° NNW 23:19:32 27° W 23:20:37 24° WSW
Cosmos 1674 3.3 23:18:32 34° SE 23:19:34 43° E 23:23:10 10° NNE
STARLINK-1204 4.0 23:15:36 10° W 23:19:43 64° N 23:23:51 10° E
STARLINK-1128 4.0 23:16:14 10° WNW 23:20:09 41° SSW 23:20:26 40° SSW
CENTAUR R/B 3.1 23:12:41 10° NW 23:20:36 73° SW 23:27:41 17° SSE
ATLAS CENTAUR R/B 3.1 23:20:47 20° SE 23:21:20 20° ESE 23:24:26 10° ENE
STARLINK-1241 3.6 23:17:40 10° WSW 23:21:50 81° NNW 23:26:00 10° ENE
SeaSat 1 4.3 23:17:49 10° NNE 23:21:59 28° NW 23:26:08 10° W
Cosmos 1503 Rocket 4.1 23:17:06 10° NNW 23:22:22 68° WSW 23:24:52 31° S
STARLINK-1238 4.0 23:20:33 10° W 23:24:41 65° N 23:28:49 10° E
STARLINK-1113 4.1 23:21:13 10° WNW 23:25:06 38° SW 23:25:12 38° SSW
STARLINK-1239 3.7 23:22:39 10° WSW 23:26:49 79° NNW 23:30:58 10° ENE
STARLINK-1201 4.0 23:25:34 10° W 23:29:42 65° N 23:33:50 10° E
STARLINK-1119 4.2 23:26:13 10° WNW 23:29:59 36° SW 23:29:59 36° SW
BREEZE-M DEB 4.2 23:26:43 10° W 23:30:47 80° S 23:47:05 10° E
STARLINK-1240 3.7 23:27:39 10° W 23:31:49 76° NNW 23:35:58 10° ENE
BREEZE-M DEB (TANK) 3.2 23:28:37 10° W 23:31:59 50° SSW 23:37:20 10° ESE
Cosmos 1867 3.5 23:26:46 10° NW 23:32:16 85° SW 23:36:08 20° SE
STARLINK-1206 4.0 23:30:33 10° W 23:34:41 66° N 23:38:49 10° E
STARLINK-1114 4.3 23:31:15 10° W 23:34:46 33° SW 23:34:46 33° SW
Helios 1A 4.0 23:33:57 28° SW 23:35:10 34° W 23:39:00 10° NNW
Cosmos 968 Rocket 4.1 23:31:21 10° NW 23:36:08 39° WSW 23:38:01 29° SSW
STARLINK-1216 3.8 23:32:38 10° W 23:36:48 74° N 23:40:57 10° ENE
Cosmos 1354 Rocket 4.2 23:32:02 10° NNW 23:37:14 58° WSW 23:39:37 31° S
Cosmos 1908 3.1 23:34:58 10° NNW 23:38:49 85° WSW 23:40:02 42° S
Cosmos 2227 Rocket 4.2 23:34:05 10° NNW 23:38:56 27° NE 23:43:43 10° E
Cosmos 1892 Rocket 4.3 23:37:41 27° SSE 23:39:37 44° E 23:43:48 10° NNE
STARLINK-1205 4.0 23:35:33 10° WNW 23:39:41 66° N 23:43:49 10° E
STARLINK-1130 (DARKSAT) 4.5 23:36:14 10° W 23:39:32 31° SW 23:39:32 31° SW
NOSS 2-2 (C) 4.5 23:37:50 13° WSW 23:40:54 41° NW 23:45:04 10° NE
ATLAS 2AS CENTAUR R/B 3.1 23:35:54 25° SSW 23:40:55 65° SE 23:48:45 10° NE
STARLINK-1237 3.8 23:37:38 10° W 23:41:47 73° N 23:45:56 10° ENE
Meteor 1-24 Rocket 4.4 23:39:53 22° SSE 23:42:48 41° E 23:47:51 10° NNE
Cosmos 2369 Rocket 2.6 23:38:59 20° SW 23:42:54 61° NW 23:48:31 10° NNE
RESURS DK-1 4.2 23:43:24 17° SE 23:44:38 19° ESE 23:47:36 10° ENE
STARLINK-1218 4.0 23:40:31 10° WNW 23:44:39 67° N 23:48:48 10° E
CZ-2D R/B 4.0 23:41:25 10° NE 23:45:18 20° E 23:48:55 11° SE
STARLINK-1202 3.8 23:42:38 10° W 23:46:47 71° N 23:50:56 10° ENE
Cosmos 1025 Rocket 4.3 23:45:34 20° WSW 23:47:41 31° WNW 23:51:33 10° N
Cosmos 1726 Rocket 3.4 23:43:26 10° N 23:47:47 89° E 23:49:41 33° S
Cosmos 2315 Rocket 4.1 23:42:33 10° NNW 23:48:43 67° W 23:52:12 27° S
STARLINK-1254 3.9 23:45:31 10° WNW 23:49:40 68° N 23:53:48 10° E
Helios 1B rocket 2.4 23:47:03 10° NNE 23:51:12 88° WNW 23:52:51 36° SSW
Cosmos 1943 Rocket 3.2 23:49:04 12° WSW 23:53:48 41° NW 23:59:06 10° NNE
STARLINK-1231 3.9 23:50:31 10° WNW 23:54:40 69° N 23:58:49 10° E
Resurs 1-4 Rocket 3.7 23:51:06 10° NE 23:55:26 25° E 23:59:06 13° SE
